Temp
68 67 69 70 71 74 73 72 67 61 66 70 70 71 71 70 67 68 69 60 53 51 51 52 53 55 55 56 57 58 59 60 61 62 62 63 64 64
63 66 68 69 71 69 70 69 68 64 62 71 72 74 71 63 65 61 64 57 54 51 50 50 51 52 53 53 54 55 56 57 58 59 59 60 61 62
62 64 66 67 62 63 63 63 59 62 57 65 70 73 69 69 71 66 64 67 71 53 50 49 49 49 50 51 51 52 53 54 55 56 57 58 59 60
66 61 62 61 59 58 57 57 57 59 56 55 62 63 62 65 67 70 74 75 74 64 54 51 50 49 48 48 49 49 49 50 51 52 53 55 56 57
62 62 62 61 59 59 58 58 60 65 62 61 63 68 71 73 72 72 71 72 75 65 53 50 50 49 49 48 48 48 48 48 48 47 48 48 50 52
63 61 61 60 60 60 60 61 59 60 61 58 58 61 65 70 70 69 69 73 70 74 66 60 58 53 47 45 45 46 46 46 46 46 45 44 43 45
66 67 67 60 54 59 65 63 63 63 63 64 61 62 63 65 63 65 61 63 66 70 66 64 48 45 43 42 43 42 43 44 44 44 42 41 40 41
63 64 65 53 54 47 47 48 55 63 60 58 57 55 56 57 59 58 57 56 54 47 49 42 39 36 37 38 39 39 39 39 39 39 39 39 38 37
61 60 60 59 51 58 48 43 43 37 38 47 50 51 46 39 40 44 43 40 38 37 39 35 36 33 35 36 37 37 37 37 37 36 36 36 35 35
41 42 44 43 39 40 45 41 36 35 35 37 34 32 32 33 35 39 39 37 35 33 33 36 33 30 33 34 35 35 35 35 35 35 34 34 34 34
35 35 37 36 35 37 42 36 32 32 34 34 33 32 32 33 34 39 34 36 36 30 30 33 32 30 31 32 33 34 34 34 34 34 34 34 35 34
32 32 33 34 34 35 41 36 31 31 30 30 30 31 32 32 32 32 37 33 33 31 32 32 33 33 31 35 35 36 37 33 33 33 34 33 32 39
30 30 31 32 33 33 33 32 30 30 30 30 30 31 32 31 32 32 32 34 33 31 32 35 35 36 35 35 36 36 35 35 36 37 33 32 31 31
31 31 31 32 32 32 32 31 32 32 32 32 32 31 31 31 32 32 31 32 32 31 34 35 33 35 35 34 34 38 39 39 37 37 36 34 33 32
32 30 31 32 32 31 31 32 33 33 32 31 30 30 31 32 34 34 34 36 35 35 35 36 35 36 36 35 35 37 32 38 38 35 35 34 33 34
31 32 31 31 31 32 32 32 32 32 31 31 31 32 34 34 33 35 34 36 35 34 36 34 35 35 33 35 34 33 35 31 35 35 34 33 34 34
33 33 33 33 32 32 31 31 31 32 31 31 31 32 32 33 32 34 33 34 31 30 31 33 35 34 34 32 31 33 32 32 34 32 30 29 31 32
32 30 28 29 29 29 29 29 29 28 29 30 30 30 30 29 30 31 32 30 29 30 30 30 30 31 33 31 27 29 30 30 31 31 31 28 29 33
29 27 26 27 28 28 28 27 26 26 27 27 27 26 27 28 27 27 27 28 27 28 29 30 28 25 23 22 29 24 25 26 26 27 29 28 27 29
28 26 26 26 26 26 26 25 25 25 24 25 24 24 24 25 25 25 25 22 25 26 27 29 27 24 21 20 20 25 27 25 25 24 25 28 30 30
25 25 25 25 25 25 23 22 21 20 20 21 21 21 21 23 22 22 23 19 19 24 23 24 25 21 26 27 23 24 28 28 26 24 24 23 24 26
23 23 23 23 22 22 21 21 21 20 20 20 19 19 19 21 20 20 20 20 22 22 23 25 26 26 25 23 21 21 25 27 28 28 27 26 22 19
20 21 20 20 20 20 20 19 17 18 16 17 17 17 16 17 19 20 19 20 20 19 21 21 24 25 23 23 21 22 22 23 26 26 29 29 28 27
MSLP
1015.91 1016.24 1016.57 1016.95 1017.32 1017.30 1017.49 1017.65 1017.87 1018.13 1017.76 1017.79 1018.28 1018.92 1019.30 1019.48 1019.55 1019.81 1020.07 1020.12 1020.13 1020.37 1020.42 1020.30 1020.46 1020.46 1020.39 1020.25 1020.17 1020.19 1020.10 1019.98 1019.82 1019.60 1019.39 1019.35 1019.25 1019.03
1015.87 1016.02 1015.99 1016.77 1016.91 1017.54 1017.74 1017.98 1018.05 1018.18 1017.94 1017.67 1017.64 1017.76 1018.66 1019.16 1018.86 1019.05 1018.69 1018.98 1019.12 1019.14 1018.87 1018.89 1018.94 1018.96 1019.05 1018.98 1018.96 1018.89 1018.67 1018.47 1018.41 1018.31 1018.08 1017.87 1017.76 1017.71
1015.66 1015.74 1015.81 1016.38 1017.13 1017.41 1017.73 1017.76 1018.12 1018.30 1018.34 1017.89 1017.75 1017.60 1017.91 1018.12 1017.74 1018.07 1017.93 1017.75 1017.28 1017.60 1017.69 1017.70 1017.55 1017.50 1017.40 1017.26 1017.21 1017.04 1016.78 1016.85 1016.99 1016.86 1016.73 1016.68 1016.61 1016.41
1014.68 1015.57 1015.77 1016.29 1016.80 1017.16 1017.48 1017.75 1018.16 1018.31 1017.94 1017.76 1017.45 1017.36 1017.28 1017.07 1016.76 1016.66 1016.13 1016.06 1016.19 1016.09 1016.13 1016.03 1015.93 1015.87 1015.97 1016.19 1016.12 1016.05 1015.92 1015.89 1015.93 1015.85 1015.62 1015.58 1015.47 1015.33
1014.45 1014.65 1014.91 1015.63 1016.23 1016.46 1016.73 1017.05 1017.25 1017.04 1017.11 1016.95 1016.10 1016.13 1015.82 1015.59 1015.26 1015.13 1014.96 1014.80 1014.61 1014.37 1014.52 1014.55 1014.54 1014.59 1014.70 1014.85 1014.96 1014.99 1015.03 1014.96 1015.04 1015.00 1014.96 1014.86 1014.75 1014.57
1013.78 1014.15 1014.54 1014.90 1014.96 1015.37 1015.70 1015.80 1016.11 1016.00 1015.85 1015.89 1015.84 1015.40 1015.17 1014.57 1014.57 1014.18 1013.69 1013.45 1013.40 1013.14 1012.90 1013.17 1013.13 1013.30 1014.12 1014.91 1014.86 1014.82 1014.59 1014.49 1014.44 1014.38 1014.21 1014.13 1014.05 1013.84
1012.69 1013.16 1013.57 1013.98 1014.16 1014.62 1014.71 1014.78 1014.92 1014.97 1015.03 1014.76 1014.63 1014.51 1014.19 1013.97 1013.72 1013.51 1013.35 1013.29 1013.02 1012.97 1012.85 1013.04 1014.50 1014.84 1015.20 1015.27 1015.15 1014.80 1014.43 1014.15 1014.02 1013.93 1014.00 1013.92 1013.89 1013.70
1012.27 1012.70 1012.98 1013.32 1013.65 1013.85 1013.93 1014.01 1014.12 1014.31 1014.51 1014.50 1014.38 1014.20 1014.06 1013.93 1013.85 1013.70 1013.50 1013.51 1013.25 1014.48 1014.54 1014.94 1015.61 1016.00 1016.01 1015.97 1016.08 1015.55 1015.04 1014.73 1014.71 1014.68 1014.52 1014.50 1014.37 1014.19
1012.31 1012.45 1012.63 1012.94 1013.34 1013.58 1013.73 1013.95 1014.21 1014.84 1015.00 1015.15 1015.00 1015.02 1015.31 1015.66 1015.63 1014.95 1014.73 1014.94 1015.31 1015.80 1015.90 1015.96 1016.32 1017.06 1017.23 1017.25 1016.51 1016.28 1016.16 1015.71 1015.46 1015.28 1015.45 1015.23 1014.94 1015.17
1014.08 1014.22 1014.20 1014.33 1014.62 1014.55 1014.53 1014.92 1015.56 1015.79 1015.81 1015.89 1016.29 1016.75 1016.76 1016.70 1016.51 1016.04 1015.67 1015.54 1015.78 1016.70 1016.78 1016.46 1017.01 1017.23 1017.32 1017.67 1017.44 1017.16 1017.03 1016.89 1016.43 1016.62 1016.39 1016.29 1015.85 1015.52
1015.28 1015.41 1015.37 1015.38 1015.34 1014.96 1014.69 1015.23 1016.19 1017.02 1017.62 1017.52 1018.01 1017.62 1017.53 1017.72 1016.52 1015.82 1016.19 1015.73 1016.46 1017.23 1017.59 1017.32 1017.57 1017.85 1017.80 1017.85 1017.77 1017.42 1017.57 1017.62 1017.40 1017.06 1016.79 1016.28 1016.13 1016.11
1016.23 1016.42 1016.55 1016.46 1015.97 1015.42 1015.03 1015.65 1016.58 1017.56 1017.71 1018.64 1017.18 1018.69 1017.90 1017.81 1017.85 1017.47 1016.97 1016.82 1016.74 1017.34 1018.06 1017.89 1017.63 1017.57 1017.56 1017.57 1017.30 1017.38 1017.41 1017.74 1017.60 1017.42 1017.10 1016.89 1016.80 1015.74
1017.16 1017.54 1017.59 1017.37 1017.07 1016.61 1016.42 1016.84 1017.61 1018.31 1018.53 1018.74 1018.82 1019.01 1019.02 1018.71 1018.91 1018.72 1018.30 1017.44 1017.36 1017.71 1018.35 1017.70 1017.50 1017.27 1017.09 1016.87 1017.17 1017.48 1017.52 1017.47 1017.12 1016.64 1016.80 1016.85 1016.89 1016.65
1017.94 1018.64 1018.86 1018.56 1018.14 1017.91 1017.95 1018.43 1018.63 1018.73 1018.86 1019.06 1019.18 1019.25 1019.29 1019.39 1019.49 1019.37 1019.34 1019.20 1019.26 1019.16 1018.97 1018.37 1017.93 1017.58 1017.13 1016.76 1016.75 1016.99 1016.98 1017.01 1016.99 1016.43 1016.37 1016.33 1016.26 1016.05
1018.90 1019.48 1019.60 1019.50 1019.24 1019.21 1019.28 1019.24 1019.23 1019.30 1019.30 1019.32 1019.53 1019.69 1019.85 1020.03 1019.68 1019.61 1019.56 1019.45 1019.62 1019.66 1019.50 1019.06 1018.65 1018.19 1017.81 1017.32 1016.93 1016.90 1017.09 1016.54 1016.67 1016.52 1016.42 1016.39 1016.14 1015.73
1019.69 1020.00 1020.14 1020.08 1020.00 1020.03 1019.94 1020.07 1020.21 1020.35 1020.34 1020.32 1020.40 1020.43 1020.36 1020.05 1019.97 1019.94 1019.60 1019.41 1019.38 1019.31 1019.60 1019.83 1019.34 1018.92 1018.33 1018.01 1017.73 1017.53 1017.36 1017.11 1016.93 1016.73 1016.49 1016.19 1016.01 1015.63
1019.81 1019.86 1020.25 1020.37 1020.36 1020.46 1020.82 1021.25 1021.25 1021.09 1021.03 1021.15 1020.96 1020.90 1020.82 1020.59 1020.42 1020.40 1020.22 1020.01 1019.86 1019.77 1019.65 1019.62 1019.63 1019.37 1019.04 1019.05 1018.30 1017.89 1017.84 1017.58 1017.34 1017.12 1016.90 1016.21 1015.67 1015.38
1020.38 1020.47 1021.14 1021.50 1021.55 1021.41 1021.40 1021.84 1022.26 1022.37 1022.13 1022.01 1021.83 1021.78 1021.64 1021.48 1021.17 1021.01 1020.83 1020.58 1020.31 1020.27 1020.17 1020.15 1019.96 1019.34 1018.87 1019.16 1019.74 1018.83 1018.41 1018.01 1017.99 1017.51 1016.87 1016.05 1015.28 1014.69
1021.36 1021.64 1021.99 1022.34 1022.63 1022.48 1022.58 1022.84 1023.21 1023.55 1023.34 1022.96 1022.91 1022.90 1022.67 1022.25 1022.07 1021.83 1021.73 1021.42 1021.11 1020.84 1020.59 1020.63 1020.45 1020.15 1019.55 1019.28 1019.66 1020.12 1019.58 1018.99 1018.59 1017.63 1016.93 1016.26 1015.30 1014.37
1022.70 1022.63 1023.05 1023.46 1023.51 1023.66 1023.96 1023.94 1024.09 1024.25 1024.26 1024.10 1024.02 1023.95 1023.60 1023.09 1022.88 1022.62 1022.50 1022.50 1021.97 1021.50 1021.14 1020.91 1020.87 1021.13 1020.80 1020.71 1020.27 1019.75 1019.65 1019.33 1018.71 1017.94 1017.13 1016.32 1015.16 1014.09
1023.84 1023.90 1024.33 1024.38 1024.55 1025.03 1025.24 1025.23 1025.44 1025.48 1025.45 1025.18 1025.03 1024.82 1024.48 1023.97 1023.79 1023.60 1023.33 1023.23 1022.87 1022.03 1021.58 1021.38 1021.55 1022.46 1021.49 1020.76 1019.90 1019.12 1018.89 1018.77 1018.86 1018.28 1017.39 1016.26 1014.82 1013.43
1024.97 1024.98 1025.17 1025.60 1025.91 1026.08 1026.16 1026.25 1026.05 1026.11 1026.12 1025.89 1025.90 1025.58 1025.30 1024.87 1024.53 1024.24 1023.89 1023.53 1023.00 1022.77 1022.31 1021.99 1021.71 1021.41 1020.99 1020.56 1019.90 1019.46 1018.50 1018.19 1017.72 1017.17 1016.76 1016.42 1015.84 1014.72
1026.26 1026.12 1026.35 1026.73 1026.90 1027.18 1027.06 1026.93 1027.04 1027.07 1027.23 1026.97 1026.68 1026.41 1026.30 1025.64 1025.26 1024.73 1024.39 1024.01 1023.63 1023.43 1022.95 1022.45 1021.93 1021.43 1021.01 1020.51 1020.21 1019.29 1018.49 1017.76 1016.89 1016.01 1015.44 1015.27 1015.09 1014.43
Wind_Speed
12 12 10 8 9 9 8 7 8 8 11 9 7 9 9 9 11 11 10 13 16 19 22 22 24 25 26 27 27 27 27 27 28 30 30 30 32 33
8 11 10 9 9 8 8 7 7 8 12 9 8 7 9 6 10 10 11 15 15 19 21 22 24 25 25 24 24 26 27 28 29 28 29 30 31 32
10 11 13 11 7 5 5 4 3 7 8 11 11 10 11 12 14 11 13 15 15 18 20 22 23 25 25 25 26 28 27 26 27 28 29 29 30 30
15 10 13 7 10 7 5 5 6 10 7 15 15 11 12 14 17 18 16 16 16 20 24 25 25 23 21 22 24 25 24 24 25 26 27 28 29 29
13 12 11 11 11 9 9 11 12 13 12 13 15 14 14 14 15 17 17 17 16 18 16 19 20 20 21 22 22 22 23 22 22 22 23 24 25 26
14 12 13 13 13 13 12 15 13 12 11 9 10 13 14 16 14 14 14 13 13 14 16 17 17 16 10 8 9 13 16 17 19 19 19 18 18 21
18 19 18 14 15 16 12 14 15 13 12 13 12 13 13 13 13 11 11 11 13 13 11 9 7 7 9 12 11 12 8 7 6 5 7 9 9 9
12 13 15 15 16 16 16 18 16 14 13 10 9 12 14 12 11 11 12 12 12 6 4 4 4 5 5 6 13 14 15 16 16 15 14 13 12 12
9 8 7 4 4 6 10 14 13 9 2 8 12 10 6 5 4 4 1 2 1 3 3 1 3 5 6 7 16 18 18 18 18 17 16 15 15 14
11 9 8 7 8 6 3 7 9 10 8 7 9 7 6 5 4 4 4 3 3 4 6 1 3 4 5 6 16 17 17 16 16 15 14 12 10 9
12 14 10 9 12 7 2 8 9 10 15 21 19 16 19 19 13 1 3 1 1 4 7 3 2 2 1 2 4 12 13 14 13 12 11 12 9 5
9 10 19 14 16 12 3 8 10 7 7 7 10 10 15 14 19 10 5 3 2 2 6 2 1 1 3 2 3 3 2 5 7 9 11 12 15 6
8 8 8 18 20 22 19 11 9 8 10 8 8 7 7 9 8 9 10 8 5 5 6 3 2 1 1 1 2 2 3 3 3 2 2 7 9 9
10 8 11 21 22 22 16 19 15 9 6 6 7 7 7 8 8 9 10 10 9 7 6 5 1 2 2 3 3 2 2 1 4 5 5 6 7 8
10 13 16 17 18 17 21 17 10 6 6 7 7 6 6 5 3 3 4 5 7 8 7 8 5 5 4 4 5 3 6 4 3 6 6 7 7 6
12 10 10 11 14 11 10 11 9 9 8 7 6 5 5 5 5 5 4 4 3 4 6 8 7 6 4 4 4 4 4 5 7 7 7 8 7 7
7 7 8 8 8 8 9 9 8 8 7 6 6 6 5 5 5 5 5 4 4 5 5 5 7 5 4 7 5 4 6 6 7 8 9 9 9 9
8 8 8 7 8 8 8 8 8 9 8 7 6 6 6 6 6 5 5 4 5 5 5 6 6 5 2 5 5 5 6 7 9 10 10 9 11 10
9 8 8 7 7 7 7 7 7 7 7 7 6 6 6 5 6 5 5 5 4 5 5 5 6 6 6 6 4 3 7 9 10 10 9 10 12 13
8 8 7 6 6 7 6 6 6 6 6 6 6 6 6 5 5 5 6 6 6 5 4 4 5 6 6 7 8 9 9 9 9 11 11 12 14 22
7 8 7 7 7 6 6 6 6 6 6 5 5 5 5 5 5 5 5 4 7 5 6 5 6 5 7 7 7 8 8 9 7 12 12 13 13 12
7 7 7 7 6 6 5 5 5 5 5 5 5 5 5 5 5 5 5 6 6 6 6 6 6 6 6 7 9 12 10 10 13 10 15 13 9 9
7 7 6 6 5 5 5 5 6 6 5 5 5 5 5 5 6 5 5 5 6 7 7 7 6 6 7 7 9 10 13 12 11 11 9 5 12 19
Wind_Direction
202 204 212 217 220 237 229 233 245 253 250 205 219 209 225 216 214 214 228 241 233 235 236 237 241 243 244 244 247 251 252 252 251 250 251 253 253 252
211 209 206 232 231 230 223 234 240 252 263 261 243 238 221 224 226 218 219 224 237 239 231 233 234 236 241 243 244 246 247 247 249 249 249 249 250 251
210 219 217 210 210 210 213 226 264 269 255 269 270 270 233 240 254 250 240 241 238 235 237 237 233 232 236 239 241 243 243 244 248 249 251 253 253 251
223 202 213 199 204 188 175 207 234 245 242 253 260 256 245 242 241 249 245 245 245 241 233 234 235 236 241 244 248 251 249 251 253 253 251 253 254 256
220 214 216 205 211 217 218 235 245 243 236 239 250 250 251 253 259 251 248 249 250 255 241 233 236 235 238 243 250 253 252 254 257 257 256 257 256 257
219 220 220 216 219 228 230 232 234 243 244 233 238 247 247 256 259 265 259 252 260 262 254 250 258 241 257 329 307 296 280 271 267 263 261 261 259 260
219 224 228 225 221 227 227 229 232 234 241 244 245 249 254 256 254 263 268 268 264 266 270 279 15 35 30 31 23 24 11 340 335 307 33 61 36 22
225 225 225 220 232 235 240 250 259 260 258 252 254 245 243 246 256 261 263 263 267 47 332 68 49 48 43 34 34 45 58 63 61 59 58 53 48 45
234 239 244 260 319 267 242 250 269 39 50 274 274 283 333 24 337 311 3 91 305 5 349 14 60 48 29 32 54 54 52 56 59 60 56 57 57 51
44 26 24 24 23 344 331 75 62 45 46 59 69 55 48 3 305 295 325 353 87 55 355 313 26 69 76 63 51 53 52 53 54 48 44 42 44 50
57 41 37 31 357 326 244 112 102 85 69 72 69 74 55 36 26 14 358 9 151 46 19 8 50 97 69 75 71 59 52 42 38 38 38 35 15 337
63 54 45 42 34 25 75 124 106 89 94 48 80 33 43 45 39 36 18 88 79 111 27 359 161 227 189 146 76 40 53 41 59 43 37 25 11 339
72 59 49 55 56 59 66 70 83 96 76 78 63 60 47 48 43 39 33 35 64 72 7 293 8 223 265 160 155 44 8 4 343 20 43 21 354 353
82 73 68 66 65 66 69 77 81 82 82 79 68 56 49 45 45 46 47 52 54 51 22 5 37 346 282 242 240 225 275 314 330 332 335 323 309 306
82 85 79 73 70 63 59 55 54 56 62 67 64 59 52 43 42 77 78 82 69 45 25 17 2 344 329 312 313 331 331 330 343 326 329 328 316 313
94 83 86 83 74 65 60 57 57 49 49 52 50 44 37 33 33 17 15 3 6 46 39 24 6 353 337 331 329 324 328 321 327 329 325 315 308 306
96 80 65 59 60 60 60 50 41 43 44 38 32 26 25 24 31 18 12 10 20 3 19 9 359 348 353 340 312 330 329 322 328 329 319 314 303 296
75 73 67 58 55 53 50 49 41 36 29 28 29 23 22 25 12 19 14 13 8 9 2 3 356 331 273 154 347 337 331 332 326 320 316 309 302 301
72 68 63 54 51 50 50 47 46 34 25 34 30 25 12 21 8 17 8 1 4 353 2 3 352 353 336 327 5 91 329 327 316 311 319 309 302 300
62 65 62 57 50 49 45 41 40 34 33 25 28 23 6 12 10 8 19 356 344 342 338 349 0 357 338 331 313 309 287 301 314 311 310 305 294 286
60 62 55 53 50 48 47 48 39 38 19 18 25 12 8 2 7 359 352 358 311 342 333 340 359 311 287 295 288 311 321 299 291 298 300 306 310 315
55 57 53 47 40 40 44 20 31 27 19 12 10 13 358 349 351 346 351 334 342 333 328 324 329 321 313 312 312 309 310 328 304 287 268 270 297 301
43 45 48 39 40 37 26 31 24 15 16 2 4 357 347 338 343 336 330 328 328 330 327 319 321 314 303 301 303 308 318 326 328 329 322 337 288 272